Regional Weather Roundup
Issued by NWS Little Rock, AR

Home | Current Version | Previous Version | Text Only | Print | Product List | Glossary Off
Versions: 1 2 3 4 5 6 7 8 9 10 11 12 13 14 15 16 17 18 19 20 21 22 23 24 25 26 27 28 29 30 31 32 33 34 35 36 37 38 39 40 41 42 43 44 45 46 47 48 49 50

000
ASUS44 KLZK 180705
RWRLZK

WEATHER ROUNDUP FOR ARKANSAS
NATIONAL WEATHER SERVICE LITTLE ROCK AR
200 AM CDT SAT APR 18 2015

NOTE: "FAIR" INDICATES FEW OR NO CLOUDS BELOW 12,000 FEET WITH NO
SIGNIFICANT WEATHER AND/OR OBSTRUCTIONS TO VISIBILITY.

ARZ001-003-010-029-180800-
NORTHWEST ARKANSAS

CITY           SKY/WX    TMP DP  RH WIND       PRES   REMARKS
FAYETTEVILLE   CLOUDY    59  59 100 CALM      29.98F
FORT SMITH     CLOUDY    67  63  87 NE6       29.95F
HARRISON       CLOUDY    60  60 100 SE7       30.01F
BENTONVILLE    CLOUDY    63  59  88 SE7       29.99F
ROGERS         CLOUDY    62  60  93 E7        30.00F
SILOAM SPGS    CLOUDY    63  55  77 E3        29.99F
HIGHFILL       CLOUDY    62  59  90 E3        29.98F
$$

ARZ004-005-016-180800-
NORTH CENTRAL ARKANSAS

CITY           SKY/WX    TMP DP  RH WIND       PRES   REMARKS
BATESVILLE     CLOUDY    61  61 100 CALM      30.00F
FLIPPIN        CLOUDY    61 N/A N/A CALM      29.98F
MTN HOME       CLOUDY    62  61  96 E3        30.00S
$$

ARZ040-041-180800-
WEST CENTRAL ARKANSAS

CITY           SKY/WX    TMP DP  RH WIND       PRES   REMARKS
MENA           CLOUDY    64  63  94 CALM      29.99S
MOUNT IDA      CLOUDY    64  61  90 CALM      29.96F
$$

ARZ009-017-025-026-028-180800-
NORTHEAST ARKANSAS

CITY           SKY/WX    TMP DP  RH WIND       PRES   REMARKS
CORNING          N/A     63  63 100 N5        30.00F FOG
JONESBORO      CLOUDY    58  58 100 NE3       29.97F FOG
NEWPORT        CLOUDY    64  64 100 E6        30.01S
WALNUT RIDGE   MOCLDY    61  57  88 N6        29.99F
BLYTHEVILLE    FOG       58  58 100 CALM      29.99F VSB 1/2
$$

ARZ022-023-033-042-044-180800-
CENTRAL ARKANSAS

CITY           SKY/WX    TMP DP  RH WIND       PRES   REMARKS
LITTLE ROCK    CLOUDY    65  61  87 CALM      29.99F
N LITTLE ROCK    N/A     64  64  97 E5        29.99F
JACKSONVILLE   MOCLDY    61  61  99 CALM      29.99S
SEARCY         CLOUDY    59  58  96 CALM      30.02R FOG
HOT SPRINGS    CLOUDY    64  60  87 E5        29.98F
RUSSELLVILLE   CLOUDY    65  62  90 E3        29.99F
CLINTON        FAIR      57  57 100 CALM      30.02F FOG
$$

ARZ036-180800-
EAST ARKANSAS

CITY           SKY/WX    TMP DP  RH WIND       PRES   REMARKS
WEST MEMPHIS   CLOUDY    61  61 100 CALM      29.98S
$$

ARZ050-053-066-070-073-180800-
SOUTHWEST ARKANSAS

CITY           SKY/WX    TMP DP  RH WIND       PRES   REMARKS
ARKADELPHIA    FAIR      67  67 100 CALM      29.98F
CAMDEN         CLOUDY    63  59  88 CALM      29.96F
TEXARKANA      CLOUDY    67  64  90 E5        29.95S
EL DORADO      CLOUDY    66  62  87 NE3       29.95F
DE QUEEN       CLOUDY    68  63  84 E6        29.94R
$$

ARZ056-057-069-180800-
SOUTHEAST ARKANSAS

CITY           SKY/WX    TMP DP  RH WIND       PRES   REMARKS
PINE BLUFF     CLOUDY    65  62  90 NE5       29.98F
STUTTGART      CLOUDY    66  61  82 SE6       30.00S
MONTICELLO     CLOUDY    64  63  96 NE3       29.96F

$$




USA.gov is the U.S. government's official web portal to all federal, state and local government web resources and services.